Time,TemperatureF,DewpointF,PressureIn,WindDirection,WindDirectionDegrees,WindSpeedMPH,WindSpeedGustMPH,Humidity,HourlyPrecipIn,Conditions,Clouds,dailyrainin,SoftwareType,DateUTC
2013-03-09 00:01:00,23.0,20.0,29.80,NNW,327,1.0,-999.0,87,-99.99,,,-99.99,,2013-03-09 07:01:00,
2013-03-09 00:11:00,23.0,20.0,29.80,NNW,327,1.0,-999.0,87,-99.99,,,-99.99,,2013-03-09 07:11:00,
2013-03-09 00:21:00,22.0,19.0,29.80,NNW,327,0.0,-999.0,87,-99.99,,,-99.99,,2013-03-09 07:21:00,
2013-03-09 00:31:00,21.0,17.0,29.80,ENE,72,1.0,-999.0,86,-99.99,,,-99.99,,2013-03-09 07:31:00,
2013-03-09 00:41:00,21.0,17.0,29.80,ENE,72,1.0,-999.0,86,-99.99,,,-99.99,,2013-03-09 07:41:00,
2013-03-09 00:51:00,20.0,17.0,29.80,NNW,342,1.0,-999.0,89,-99.99,,,-99.99,,2013-03-09 07:51:00,
2013-03-09 01:01:00,22.0,19.0,29.80,NW,318,5.0,-999.0,89,-99.99,,,-99.99,,2013-03-09 08:01:00,
2013-03-09 01:11:00,22.0,19.0,29.80,NW,318,5.0,-999.0,89,-99.99,,,-99.99,,2013-03-09 08:11:00,
2013-03-09 01:21:00,22.0,19.0,29.81,NNW,338,5.0,-999.0,88,-99.99,,,-99.99,,2013-03-09 08:21:00,
2013-03-09 01:31:00,22.0,19.0,29.81,NW,323,7.0,-999.0,87,-99.99,,,-99.99,,2013-03-09 08:31:00,
2013-03-09 01:41:00,22.0,19.0,29.81,NW,323,7.0,-999.0,87,-99.99,,,-99.99,,2013-03-09 08:41:00,
2013-03-09 01:52:00,22.0,19.0,29.81,NW,323,5.0,-999.0,87,-99.99,,,-99.99,,2013-03-09 08:52:00,
2013-03-09 02:01:00,22.0,19.0,29.81,NW,319,5.0,-999.0,87,-99.99,,,-99.99,,2013-03-09 09:01:00,
2013-03-09 02:11:00,22.0,19.0,29.81,NW,319,5.0,-999.0,87,-99.99,,,-99.99,,2013-03-09 09:11:00,
2013-03-09 02:21:00,22.0,19.0,29.81,NNW,336,5.0,-999.0,87,-99.99,,,-99.99,,2013-03-09 09:21:00,
2013-03-09 02:31:00,22.0,19.0,29.80,NNW,331,5.0,-999.0,87,-99.99,,,-99.99,,2013-03-09 09:31:00,
2013-03-09 02:41:00,22.0,19.0,29.80,NNW,331,5.0,-999.0,87,-99.99,,,-99.99,,2013-03-09 09:41:00,
2013-03-09 02:52:00,22.0,18.0,29.80,NNW,329,4.0,-999.0,86,-99.99,,,-99.99,,2013-03-09 09:52:00,
2013-03-09 03:01:00,22.0,18.0,29.81,NW,313,4.0,-999.0,86,-99.99,,,-99.99,,2013-03-09 10:01:00,
2013-03-09 03:11:00,22.0,18.0,29.81,NW,313,4.0,-999.0,86,-99.99,,,-99.99,,2013-03-09 10:11:00,
2013-03-09 03:21:00,21.0,18.0,29.81,NW,306,3.0,-999.0,87,-99.99,,,-99.99,,2013-03-09 10:21:00,
2013-03-09 03:31:00,21.0,18.0,29.81,NW,306,1.0,-999.0,88,-99.99,,,-99.99,,2013-03-09 10:31:00,
2013-03-09 03:41:00,21.0,18.0,29.81,NW,306,1.0,-999.0,88,-99.99,,,-99.99,,2013-03-09 10:41:00,
2013-03-09 03:52:00,21.0,17.0,29.81,NW,306,0.0,-999.0,84,-99.99,,,-99.99,,2013-03-09 10:52:00,
2013-03-09 04:01:00,20.0,17.0,29.81,NW,306,0.0,-999.0,89,-99.99,,,-99.99,,2013-03-09 11:01:00,
2013-03-09 04:11:00,20.0,17.0,29.81,NW,306,0.0,-999.0,89,-99.99,,,-99.99,,2013-03-09 11:11:00,
2013-03-09 04:21:00,19.0,15.0,29.81,NW,306,1.0,-999.0,85,-99.99,,,-99.99,,2013-03-09 11:21:00,
2013-03-09 04:31:00,20.0,18.0,29.82,NNW,340,2.0,-999.0,90,-99.99,,,-99.99,,2013-03-09 11:31:00,
2013-03-09 04:41:00,20.0,18.0,29.82,NNW,340,2.0,-999.0,90,-99.99,,,-99.99,,2013-03-09 11:41:00,
2013-03-09 04:52:00,21.0,17.0,29.82,NNE,28,9.0,-999.0,85,-99.99,,,-99.99,,2013-03-09 11:52:00,
2013-03-09 05:01:00,20.0,16.0,29.83,NNW,329,8.0,-999.0,84,-99.99,,,-99.99,,2013-03-09 12:01:00,
2013-03-09 05:11:00,20.0,16.0,29.83,NNW,329,8.0,-999.0,84,-99.99,,,-99.99,,2013-03-09 12:11:00,
2013-03-09 05:21:00,19.0,15.0,29.83,NW,323,7.0,-999.0,85,-99.99,,,-99.99,,2013-03-09 12:21:00,
2013-03-09 05:31:00,19.0,16.0,29.84,NNW,339,5.0,-999.0,86,-99.99,,,-99.99,,2013-03-09 12:31:00,
2013-03-09 05:42:00,19.0,16.0,29.84,NNW,339,5.0,-999.0,86,-99.99,,,-99.99,,2013-03-09 12:42:00,
2013-03-09 05:52:00,19.0,15.0,29.85,NNW,340,6.0,-999.0,85,-99.99,,,-99.99,,2013-03-09 12:52:00,
2013-03-09 06:02:00,19.0,15.0,29.85,NNW,334,8.0,-999.0,84,-99.99,,,-99.99,,2013-03-09 13:02:00,
2013-03-09 06:11:00,19.0,15.0,29.85,NNW,334,8.0,-999.0,84,-99.99,,,-99.99,,2013-03-09 13:11:00,
2013-03-09 06:21:00,20.0,16.0,29.85,NNW,336,10.0,-999.0,83,-99.99,,,-99.99,,2013-03-09 13:21:00,
2013-03-09 06:31:00,18.0,14.0,29.86,North,349,8.0,-999.0,84,-99.99,,,-99.99,,2013-03-09 13:31:00,
2013-03-09 06:41:00,18.0,14.0,29.86,North,349,8.0,-999.0,84,-99.99,,,-99.99,,2013-03-09 13:41:00,
2013-03-09 06:52:00,19.0,15.0,29.87,NNW,338,6.0,-999.0,84,-99.99,,,-99.99,,2013-03-09 13:52:00,
2013-03-09 07:01:00,19.0,14.0,29.87,NNE,24,6.0,-999.0,82,-99.99,,,-99.99,,2013-03-09 14:01:00,
2013-03-09 07:11:00,19.0,14.0,29.87,NNE,24,6.0,-999.0,82,-99.99,,,-99.99,,2013-03-09 14:11:00,
2013-03-09 07:21:00,20.0,15.0,29.88,NNW,335,7.0,-999.0,81,-99.99,,,-99.99,,2013-03-09 14:21:00,
2013-03-09 07:31:00,20.0,15.0,29.86,NW,321,9.0,-999.0,81,-99.99,,,-99.99,,2013-03-09 14:31:00,
2013-03-09 07:41:00,20.0,15.0,29.86,NW,321,9.0,-999.0,81,-99.99,,,-99.99,,2013-03-09 14:41:00,
2013-03-09 07:52:00,21.0,16.0,29.86,NW,321,11.0,-999.0,80,-99.99,,,-99.99,,2013-03-09 14:52:00,
2013-03-09 08:01:00,21.0,15.0,29.86,NW,323,11.0,-999.0,78,-99.99,,,-99.99,,2013-03-09 15:01:00,
2013-03-09 08:11:00,21.0,15.0,29.86,NW,323,11.0,-999.0,78,-99.99,,,-99.99,,2013-03-09 15:11:00,
2013-03-09 08:21:00,21.0,15.0,29.88,WNW,296,10.0,-999.0,78,-99.99,,,-99.99,,2013-03-09 15:21:00,
2013-03-09 08:31:00,22.0,15.0,29.88,NNE,30,11.0,-999.0,75,-99.99,,,-99.99,,2013-03-09 15:31:00,
2013-03-09 08:42:00,22.0,15.0,29.88,NNE,30,11.0,-999.0,75,-99.99,,,-99.99,,2013-03-09 15:42:00,
2013-03-09 08:52:00,22.0,15.0,29.89,North,355,10.0,-999.0,75,-99.99,,,-99.99,,2013-03-09 15:52:00,
2013-03-09 09:01:00,24.0,16.0,29.89,NE,38,10.0,-999.0,72,-99.99,,,-99.99,,2013-03-09 16:01:00,
2013-03-09 09:11:00,24.0,16.0,29.89,NE,38,10.0,-999.0,72,-99.99,,,-99.99,,2013-03-09 16:11:00,
2013-03-09 09:21:00,25.0,17.0,29.90,NNE,32,10.0,-999.0,71,-99.99,,,-99.99,,2013-03-09 16:21:00,
2013-03-09 09:31:00,27.0,17.0,29.90,NNW,333,9.0,-999.0,65,-99.99,,,-99.99,,2013-03-09 16:31:00,
2013-03-09 09:41:00,27.0,17.0,29.90,NNW,333,9.0,-999.0,65,-99.99,,,-99.99,,2013-03-09 16:41:00,
2013-03-09 09:52:00,28.0,17.0,29.90,North,9,11.0,-999.0,63,-99.99,,,-99.99,,2013-03-09 16:52:00,
2013-03-09 10:01:00,29.0,16.0,29.90,NNW,329,8.0,-999.0,59,-99.99,,,-99.99,,2013-03-09 17:01:00,
2013-03-09 10:11:00,29.0,16.0,29.90,NNW,329,8.0,-999.0,59,-99.99,,,-99.99,,2013-03-09 17:11:00,
2013-03-09 10:21:00,29.0,16.0,29.90,NNE,27,8.0,-999.0,59,-99.99,,,-99.99,,2013-03-09 17:21:00,
2013-03-09 10:31:00,30.0,16.0,29.90,North,360,9.0,-999.0,55,-99.99,,,-99.99,,2013-03-09 17:31:00,
2013-03-09 10:42:00,30.0,16.0,29.90,North,360,9.0,-999.0,55,-99.99,,,-99.99,,2013-03-09 17:42:00,
2013-03-09 10:52:00,31.0,17.0,29.93,NNE,27,8.0,-999.0,56,-99.99,,,-99.99,,2013-03-09 17:52:00,
2013-03-09 11:01:00,32.0,17.0,29.93,NE,44,9.0,-999.0,53,-99.99,,,-99.99,,2013-03-09 18:01:00,
2013-03-09 11:11:00,32.0,17.0,29.93,NE,44,9.0,-999.0,53,-99.99,,,-99.99,,2013-03-09 18:11:00,
2013-03-09 11:21:00,32.0,15.0,29.93,NNE,22,11.0,-999.0,49,-99.99,,,-99.99,,2013-03-09 18:21:00,
2013-03-09 11:31:00,33.0,15.0,29.93,NNE,31,11.0,-999.0,48,-99.99,,,-99.99,,2013-03-09 18:31:00,
2013-03-09 11:41:00,33.0,15.0,29.93,NNE,31,11.0,-999.0,48,-99.99,,,-99.99,,2013-03-09 18:41:00,
2013-03-09 11:52:00,33.0,14.0,29.93,NNE,30,11.0,-999.0,45,-99.99,,,-99.99,,2013-03-09 18:52:00,
2013-03-09 12:01:00,34.0,15.0,29.94,NNE,14,10.0,-999.0,45,-99.99,,,-99.99,,2013-03-09 19:01:00,
2013-03-09 12:11:00,34.0,15.0,29.94,NNE,14,10.0,-999.0,45,-99.99,,,-99.99,,2013-03-09 19:11:00,
2013-03-09 12:21:00,35.0,14.0,29.95,NNE,17,11.0,-999.0,41,-99.99,,,-99.99,,2013-03-09 19:21:00,
2013-03-09 12:31:00,35.0,11.0,29.95,North,5,13.0,-999.0,37,-99.99,,,-99.99,,2013-03-09 19:31:00,
2013-03-09 12:41:00,35.0,11.0,29.95,North,5,13.0,-999.0,37,-99.99,,,-99.99,,2013-03-09 19:41:00,
2013-03-09 12:52:00,36.0,13.0,29.95,NNE,24,11.0,-999.0,39,-99.99,,,-99.99,,2013-03-09 19:52:00,
2013-03-09 13:01:00,36.0,13.0,29.95,North,360,12.0,-999.0,39,-99.99,,,-99.99,,2013-03-09 20:01:00,
2013-03-09 13:11:00,36.0,13.0,29.95,North,360,12.0,-999.0,39,-99.99,,,-99.99,,2013-03-09 20:11:00,
2013-03-09 13:21:00,36.0,13.0,29.96,North,11,13.0,-999.0,39,-99.99,,,-99.99,,2013-03-09 20:21:00,
2013-03-09 13:31:00,36.0,13.0,29.96,North,350,12.0,-999.0,39,-99.99,,,-99.99,,2013-03-09 20:31:00,
2013-03-09 13:41:00,36.0,13.0,29.96,North,350,12.0,-999.0,39,-99.99,,,-99.99,,2013-03-09 20:41:00,
2013-03-09 13:52:00,36.0,15.0,29.96,NNE,16,12.0,-999.0,42,-99.99,,,-99.99,,2013-03-09 20:52:00,
2013-03-09 14:01:00,37.0,14.0,29.96,NNE,15,12.0,-999.0,38,-99.99,,,-99.99,,2013-03-09 21:01:00,
2013-03-09 14:11:00,37.0,14.0,29.96,NNE,15,12.0,-999.0,38,-99.99,,,-99.99,,2013-03-09 21:11:00,
2013-03-09 14:21:00,36.0,14.0,29.96,NNE,18,13.0,-999.0,40,-99.99,,,-99.99,,2013-03-09 21:21:00,
2013-03-09 14:31:00,37.0,16.0,29.97,NNE,20,11.0,-999.0,41,-99.99,,,-99.99,,2013-03-09 21:31:00,
2013-03-09 14:41:00,37.0,16.0,29.97,NNE,20,11.0,-999.0,41,-99.99,,,-99.99,,2013-03-09 21:41:00,
2013-03-09 14:52:00,37.0,15.0,29.97,NNE,12,12.0,-999.0,40,-99.99,,,-99.99,,2013-03-09 21:52:00,
2013-03-09 15:01:00,37.0,14.0,29.98,NNE,22,12.0,-999.0,38,-99.99,,,-99.99,,2013-03-09 22:01:00,
2013-03-09 15:11:00,37.0,14.0,29.98,NNE,22,12.0,-999.0,38,-99.99,,,-99.99,,2013-03-09 22:11:00,
2013-03-09 15:21:00,38.0,12.0,29.98,NE,35,11.0,-999.0,34,-99.99,,,-99.99,,2013-03-09 22:21:00,
2013-03-09 15:32:00,38.0,12.0,29.99,North,355,13.0,-999.0,34,-99.99,,,-99.99,,2013-03-09 22:32:00,
2013-03-09 15:41:00,38.0,12.0,29.99,North,355,13.0,-999.0,34,-99.99,,,-99.99,,2013-03-09 22:41:00,
2013-03-09 15:52:00,38.0,13.0,29.99,North,5,11.0,-999.0,35,-99.99,,,-99.99,,2013-03-09 22:52:00,
2013-03-09 16:01:00,37.0,14.0,30.00,NE,45,8.0,-999.0,39,-99.99,,,-99.99,,2013-03-09 23:01:00,
2013-03-09 16:11:00,37.0,14.0,30.00,NE,45,8.0,-999.0,39,-99.99,,,-99.99,,2013-03-09 23:11:00,
2013-03-09 16:21:00,38.0,15.0,30.01,North,5,10.0,-999.0,38,-99.99,,,-99.99,,2013-03-09 23:21:00,
2013-03-09 16:31:00,38.0,16.0,30.01,NW,322,7.0,-999.0,40,-99.99,,,-99.99,,2013-03-09 23:31:00,
2013-03-09 16:41:00,38.0,16.0,30.01,NW,322,7.0,-999.0,40,-99.99,,,-99.99,,2013-03-09 23:41:00,
2013-03-09 16:52:00,38.0,16.0,30.01,NNW,333,11.0,-999.0,41,-99.99,,,-99.99,,2013-03-09 23:52:00,
2013-03-09 17:01:00,37.0,17.0,30.02,North,355,9.0,-999.0,43,-99.99,,,-99.99,,2013-03-10 00:01:00,
2013-03-09 17:11:00,37.0,17.0,30.02,North,355,9.0,-999.0,43,-99.99,,,-99.99,,2013-03-10 00:11:00,
2013-03-09 17:21:00,37.0,16.0,30.03,WNW,290,9.0,-999.0,41,-99.99,,,-99.99,,2013-03-10 00:21:00,
2013-03-09 17:31:00,37.0,17.0,30.03,NW,320,8.0,-999.0,43,-99.99,,,-99.99,,2013-03-10 00:31:00,
2013-03-09 17:42:00,37.0,17.0,30.03,NW,320,8.0,-999.0,43,-99.99,,,-99.99,,2013-03-10 00:42:00,
2013-03-09 17:52:00,36.0,17.0,30.05,NNW,341,6.0,-999.0,45,-99.99,,,-99.99,,2013-03-10 00:52:00,
2013-03-09 18:01:00,35.0,16.0,30.06,NW,319,5.0,-999.0,45,-99.99,,,-99.99,,2013-03-10 01:01:00,
2013-03-09 18:11:00,35.0,16.0,30.06,NW,319,5.0,-999.0,45,-99.99,,,-99.99,,2013-03-10 01:11:00,
2013-03-09 18:21:00,34.0,16.0,30.06,NW,326,4.0,-999.0,47,-99.99,,,-99.99,,2013-03-10 01:21:00,
2013-03-09 18:31:00,34.0,14.0,30.07,NNW,327,5.0,-999.0,44,-99.99,,,-99.99,,2013-03-10 01:31:00,
2013-03-09 18:41:00,34.0,14.0,30.07,NNW,327,5.0,-999.0,44,-99.99,,,-99.99,,2013-03-10 01:41:00,
2013-03-09 18:52:00,34.0,15.0,30.08,NNW,339,5.0,-999.0,46,-99.99,,,-99.99,,2013-03-10 01:52:00,
2013-03-09 19:01:00,32.0,15.0,30.09,NNW,327,3.0,-999.0,48,-99.99,,,-99.99,,2013-03-10 02:01:00,
2013-03-09 19:11:00,32.0,15.0,30.09,NNW,327,3.0,-999.0,48,-99.99,,,-99.99,,2013-03-10 02:11:00,
2013-03-09 19:22:00,32.0,13.0,30.10,North,360,4.0,-999.0,44,-99.99,,,-99.99,,2013-03-10 02:22:00,
2013-03-09 19:31:00,32.0,13.0,30.11,NW,319,4.0,-999.0,45,-99.99,,,-99.99,,2013-03-10 02:31:00,
2013-03-09 19:41:00,32.0,13.0,30.11,NW,319,4.0,-999.0,45,-99.99,,,-99.99,,2013-03-10 02:41:00,
2013-03-09 19:52:00,31.0,13.0,30.11,NNW,332,2.0,-999.0,47,-99.99,,,-99.99,,2013-03-10 02:52:00,
2013-03-09 20:01:00,29.0,11.0,30.12,NNW,337,3.0,-999.0,47,-99.99,,,-99.99,,2013-03-10 03:01:00,
2013-03-09 20:11:00,29.0,11.0,30.14,NNW,342,1.0,-999.0,46,-99.99,,,-99.99,,2013-03-10 03:11:00,
2013-03-09 20:21:00,29.0,11.0,30.14,NNW,342,1.0,-999.0,46,-99.99,,,-99.99,,2013-03-10 03:21:00,
2013-03-09 20:31:00,28.0,11.0,30.14,NNE,18,3.0,-999.0,48,-99.99,,,-99.99,,2013-03-10 03:31:00,
2013-03-09 20:41:00,28.0,11.0,30.14,NNE,18,3.0,-999.0,48,-99.99,,,-99.99,,2013-03-10 03:41:00,
2013-03-09 20:52:00,27.0,11.0,30.15,NE,47,4.0,-999.0,51,-99.99,,,-99.99,,2013-03-10 03:52:00,
2013-03-09 21:01:00,26.0,11.0,30.16,NNE,23,6.0,-999.0,53,-99.99,,,-99.99,,2013-03-10 04:01:00,
2013-03-09 21:11:00,26.0,11.0,30.16,NNE,23,6.0,-999.0,53,-99.99,,,-99.99,,2013-03-10 04:11:00,
2013-03-09 21:21:00,29.0,12.0,30.16,NNW,329,7.0,-999.0,48,-99.99,,,-99.99,,2013-03-10 04:21:00,
2013-03-09 21:31:00,29.0,11.0,30.17,NNE,27,5.0,-999.0,46,-99.99,,,-99.99,,2013-03-10 04:31:00,
2013-03-09 21:41:00,29.0,11.0,30.17,NNE,27,5.0,-999.0,46,-99.99,,,-99.99,,2013-03-10 04:41:00,
2013-03-09 21:52:00,27.0,11.0,30.17,NNE,21,7.0,-999.0,51,-99.99,,,-99.99,,2013-03-10 04:52:00,
2013-03-09 22:01:00,26.0,11.0,30.19,NNW,329,8.0,-999.0,53,-99.99,,,-99.99,,2013-03-10 05:01:00,
2013-03-09 22:11:00,26.0,11.0,30.19,NNW,329,8.0,-999.0,53,-99.99,,,-99.99,,2013-03-10 05:11:00,
2013-03-09 22:21:00,25.0,11.0,30.19,NNW,338,5.0,-999.0,55,-99.99,,,-99.99,,2013-03-10 05:21:00,
2013-03-09 22:31:00,24.0,11.0,30.19,NNE,21,4.0,-999.0,56,-99.99,,,-99.99,,2013-03-10 05:31:00,
2013-03-09 22:42:00,24.0,11.0,30.20,NNE,21,0.0,-999.0,57,-99.99,,,-99.99,,2013-03-10 05:42:00,
2013-03-09 22:52:00,24.0,11.0,30.20,NNE,21,0.0,-999.0,57,-99.99,,,-99.99,,2013-03-10 05:52:00,
2013-03-09 23:01:00,24.0,10.0,30.20,NNE,21,0.0,-999.0,55,-99.99,,,-99.99,,2013-03-10 06:01:00,
2013-03-09 23:11:00,22.0,9.0,30.20,NNE,16,2.0,-999.0,57,-99.99,,,-99.99,,2013-03-10 06:11:00,
2013-03-09 23:21:00,22.0,9.0,30.20,NNE,16,2.0,-999.0,57,-99.99,,,-99.99,,2013-03-10 06:21:00,
2013-03-09 23:31:00,23.0,10.0,30.20,NNE,16,0.0,-999.0,58,-99.99,,,-99.99,,2013-03-10 06:31:00,
2013-03-09 23:41:00,24.0,11.0,30.21,NNE,16,1.0,-999.0,56,-99.99,,,-99.99,,2013-03-10 06:41:00,
2013-03-09 23:52:00,24.0,11.0,30.21,NNE,16,1.0,-999.0,56,-99.99,,,-99.99,,2013-03-10 06:52:00,